Alamosa, CO

12:05 PM MDT on May 27, 2018 (GMT -0600)
San Luis Valley Regional / Bergman Field

Weather History for KALS - August, 2013

Change the Weather History Date:

Saturday, August 31, 2013

  Actual Average Record
Temperature  
Mean Temperature 70 °F 60 °F  
Max Temperature 86 °F 77 °F 88 °F (2011)
Min Temperature 53 °F 43 °F 31 °F (1944)
Degree Days  
Heating Degree Days 0 5  
Month to date heating degree days 47 84  
Since 1 June heating degree days 177 297  
Since 1 July heating degree days 75 129  
Cooling Degree Days 5 0  
Month to date cooling degree days 34 13  
Year to date cooling degree days 99 51  
Since 1 June cooling degree days 99 51  
Growing Degree Days 20 (Base 50)    
Moisture  
Dew Point 45 °F    
Average Humidity 50    
Maximum Humidity 78    
Minimum Humidity 21    
Precipitation  
Precipitation 0.03 in 0.04 in 0.34 in (2001)
Month to date precipitation 2.47 1.27  
Year to date precipitation 4.88 4.95  
Snow  
Snow 0.00 in 0.00 in 0.00 in (2002)
Month to date snowfall 0.0 0.0  
Since 1 June snowfall 0.0 0.0  
Since 1 July snowfall 0.0 0.0  
Snow Depth 0.00 in    
Sea Level Pressure  
Sea Level Pressure 29.98 in    
Wind  
Wind Speed 5 mph (North)    
Max Wind Speed 24 mph    
Max Gust Speed 28 mph    
Visibility 10 miles    
Events Rain    
T = Trace of Precipitation, MM = Missing Value Source: NWS Daily Summary

Daily Weather History Graph

Daily Weather History Graph

Search for Another Location

Airport or City:

Astronomy

Aug. 31, 2013 Rise Set
Actual Time 6:33 AM MDT 7:33 PM MDT
Civil Twilight 6:06 AM MDT 8:00 PM MDT
Nautical Twilight 5:34 AM MDT 8:31 PM MDT
Astronomical Twilight 5:01 AM MDT 9:04 PM MDT
Moon 2:07 AM MDT (8/31) 4:30 PM MDT (8/31)
Length of Visible Light 13h 53m
Length of Day
13h 00m
Waning Crescent, 20% of the Moon is Illuminated
Aug 31
Waning Crescent
Sep 5
New
Sep 12
First Quarter
Sep 19
Full
Sep 26
Last Quarter

Hourly Weather History & Observations

Time (MDT) Temp. Dew Point Humidity Pressure Visibility Wind Dir Wind Speed Gust Speed Precip Events Conditions
12:52 AM 66.9 °F 43.0 °F 42% 29.97 in 10.0 mi NNW 6.9 mph - N/A   Mostly Cloudy
1:52 AM 59.0 °F 43.0 °F 55% 29.98 in 10.0 mi East 5.8 mph - N/A   Clear
2:52 AM 57.0 °F 43.0 °F 59% 29.99 in 10.0 mi ENE 5.8 mph - N/A   Clear
3:52 AM 55.9 °F 42.1 °F 60% 29.99 in 10.0 mi ENE 8.1 mph - N/A   Clear
4:52 AM 53.1 °F 39.9 °F 61% 30.01 in 10.0 mi East 4.6 mph - N/A   Clear
5:52 AM 55.0 °F 41.0 °F 59% 30.01 in 10.0 mi Calm Calm - N/A   Clear
6:52 AM 53.1 °F 42.1 °F 66% 30.04 in 10.0 mi SSE 3.5 mph - N/A   Clear
7:52 AM 55.0 °F 43.0 °F 64% 30.06 in 10.0 mi Calm Calm - N/A   Clear
8:52 AM 64.0 °F 45.0 °F 50% 30.03 in 10.0 mi Calm Calm - N/A   Clear
9:52 AM 69.1 °F 46.9 °F 45% 30.01 in 10.0 mi Calm Calm - N/A   Clear
10:52 AM 75.9 °F 44.1 °F 32% 29.99 in 10.0 mi Calm Calm - N/A   Clear
11:52 AM 77.0 °F 44.1 °F 31% 29.97 in 10.0 mi Calm Calm - N/A   Clear
12:52 PM 82.0 °F 44.1 °F 26% 29.93 in 10.0 mi North 8.1 mph - N/A   Clear
1:52 PM 84.0 °F 43.0 °F 24% 29.93 in 10.0 mi NNW 6.9 mph - N/A   Clear
2:52 PM 86.0 °F 42.1 °F 21% 29.90 in 10.0 mi Variable 5.8 mph - N/A   Scattered Clouds
3:52 PM 84.9 °F 42.1 °F 22% 29.90 in 10.0 mi West 9.2 mph 17.3 mph N/A   Scattered Clouds
4:52 PM 77.0 °F 45.0 °F 32% 29.96 in 10.0 mi WNW 17.3 mph - N/A   Partly Cloudy
5:52 PM 75.0 °F 45.0 °F 34% 29.94 in 10.0 mi NW 17.3 mph - N/A   Clear
6:52 PM 73.0 °F 46.0 °F 38% 29.96 in 10.0 mi NNE 8.1 mph - N/A   Scattered Clouds
7:52 PM 72.0 °F 45.0 °F 38% 29.98 in 10.0 mi NE 4.6 mph - N/A   Partly Cloudy
8:52 PM 68.0 °F 48.9 °F 50% 30.02 in 5.0 mi Variable 3.5 mph - 0.00 in Rain Rain
9:52 PM 64.0 °F 54.0 °F 70% 30.02 in 10.0 mi WSW 6.9 mph - 0.03 in   Mostly Cloudy
10:52 PM 61.0 °F 53.1 °F 75% 30.00 in 10.0 mi WNW 6.9 mph - N/A   Partly Cloudy
11:52 PM 63.0 °F 53.1 °F 70% 29.99 in 10.0 mi WNW 3.5 mph - N/A   Mostly Cloudy